Location: Unspecified
(0.0000°N, 0.0000°E)
Time: 19:16:19
(UTC+01:00)

Haruka - Visible Passes

Search period start: 22 January 2018 00:00
Search period end: 01 February 2018 00:00
Orbit: 538 x 21220 km, 31.3° (Epoch: 22 January)

Date Brightness Start Highest point End Pass type
(mag) Time Alt. Az. Time Alt. Az. Time Alt. Az.
22 Jan 6.5 06:40:01 10° NNW 06:53:46 36° NE 10:08:32 10° ESE visible
23 Jan 6.4 15:01:30 10° W 19:33:24 49° SSE 19:48:22 10° E visible
24 Jan 5.4 18:49:50 10° WSW 20:47:18 62° SSE 20:53:20 32° E visible
25 Jan 4.7 21:17:25 10° SW 21:57:14 89° NNW 21:57:33 86° NE visible
26 Jan 5.9 22:47:23 10° WSW 23:01:47 35° W 23:01:47 35° W visible
27 Jan 6.4 05:43:19 10° N 05:53:44 26° NE 06:58:42 10° ESE visible
29 Jan 6.1 15:36:05 10° WSW 19:46:34 58° SSE 19:58:24 12° E visible
30 Jan 5.0 19:41:48 10° SW 20:58:15 79° SSE 21:02:38 41° ENE visible
31 Jan 4.9 21:35:53 10° WSW 22:06:52 62° NW 22:06:52 62° NW visible
